Погода в Хоросткове

Украина / Тернопольская область     49°12′40″N   25°55′03″E
темп.,
°C
ветер,
м/с
пор.,
м/с
влажн.,
%
обл.,
%
осадки,
мм/ч
давл.,
гПа
погр.,
м
23 мая, пн
пн2300:00+8зсз3791100 0.0 1011166
03:00+9сз51175100 0.0 10111019
06:00+9сз4892100 0.4 1010500
09:00+9сз459059 0.6 1011466
12:00+11с358071 0.5 1012647
15:00+14сз456892 1.5 10111049
18:00+14ссз457149 1.3 1011852
21:00+10зсз22839 2.1 101212
24 мая, вт
вт2400:00+8ссз22905 0.0 101312
03:00+7св11881 0.0 101310
06:00+7в12901 0.0 101410
09:00+13вюв33744 0.0 1014425
12:00+17вюв33525 0.0 10141450
15:00+19юв44455 0.0 10131801
18:00+19юв444626 0.0 10131684
21:00+13вюв3667100 0.0 101468
25 мая, ср
ср2500:00+11вюв4126895 0.0 1015214
03:00+10юв4127669 0.0 1016214
06:00+10юв5137897 0.0 1016271
09:00+15ююв61067100 0.0 1016479
12:00+19ююв7861100 0.0 10151061
15:00+22ююв6656100 0.0 10141306
18:00+22ююв45556 0.0 10131240
21:00+19ююв4972100 0.0 1012233
26 мая, чт
чт2600:00+16з4995100 3.1 1014292
03:00+15зсз51097100 3.8 1015503
06:00+14сз51095100 0.0 1016521
09:00+15сз69806 0.1 1018744
12:00+19сз69546 0.0 10181624
15:00+20зсз695599 0.0 10182232
18:00+20сз612565 0.0 10181622
21:00+15з337353 0.0 101821
27 мая, пт
пт2700:00+16з376899 0.0 1019155
03:00+15з4107064 0.0 1019335
06:00+12зсз37860 0.0 1019120
09:00+17зсз47660 0.0 1018821
12:00+20з585486 0.0 10171819
15:00+21з4753100 0.0 10141539
18:00+21юз3665100 0.0 1012347
21:00+17юз347958 0.4 101053